{"data":{"norad_id":66273,"epoch":"2026-05-25T03:17:34.992384Z","epoch_age_seconds":63481,"freshness":"FRESH","line1":"1 66273U 25247J   26145.13721056  .00019297  00000+0  58058-3 0  9993","line2":"2 66273  53.1594 195.2548 0001183  78.9225 281.1910 15.34410629 32803","mean_motion":15.34410629,"eccentricity":0.0001183,"inclination_deg":53.1594,"raan_deg":195.2548,"arg_perigee_deg":78.9225,"mean_anomaly_deg":281.191,"bstar":0.00058058,"rev_number":3280,"period_min":93.8471079895,"perigee_km":461.86238109836,"apogee_km":463.48091642466,"semimajor_km":6840.8086487615,"source":"CELESTRAK","updated_at":"2026-05-25T13:38:21.161288Z"}}